TimeCST,TemperatureF,Dew PointF,Humidity,Sea Level PressureIn,VisibilityMPH,Wind Direction,Wind SpeedMPH,Gust SpeedMPH,PrecipitationIn,Events,Conditions,WindDirDegrees,DateUTC
12:15 AM,41.0,39.2,93,29.92,10.0,NNE,13.8,19.6,N/A,,Overcast,30,2011-11-09 06:15:00
12:35 AM,41.0,39.2,93,29.91,10.0,NNE,12.7,23.0,N/A,Rain,Light Rain,30,2011-11-09 06:35:00
12:55 AM,41.0,41.0,100,29.90,10.0,NE,13.8,21.9,N/A,,Light Drizzle,40,2011-11-09 06:55:00
1:15 AM,41.0,39.2,93,29.90,10.0,NNE,12.7,20.7,N/A,Rain,Light Rain,30,2011-11-09 07:15:00
1:35 AM,41.0,41.0,100,29.89,10.0,NE,15.0,19.6,N/A,,Drizzle,40,2011-11-09 07:35:00
1:55 AM,41.0,39.2,93,29.88,7.0,NE,12.7,20.7,N/A,Rain,Light Rain,40,2011-11-09 07:55:00
2:15 AM,41.0,41.0,100,29.87,10.0,NE,15.0,21.9,0.01,Rain,Light Rain,40,2011-11-09 08:15:00
2:35 AM,41.0,41.0,100,29.86,7.0,NE,17.3,24.2,0.01,Rain,Rain,40,2011-11-09 08:35:00
2:55 AM,41.0,41.0,100,29.85,7.0,NE,10.4,18.4,0.03,Rain,Light Rain,40,2011-11-09 08:55:00
3:15 AM,41.0,41.0,100,29.83,10.0,NE,15.0,24.2,N/A,Rain,Rain,40,2011-11-09 09:15:00
3:35 AM,41.0,41.0,100,29.83,7.0,NE,13.8,23.0,0.02,Rain,Light Rain,50,2011-11-09 09:35:00
3:55 AM,41.0,41.0,100,29.81,7.0,NE,15.0,23.0,0.04,Rain,Rain,40,2011-11-09 09:55:00
4:15 AM,41.0,41.0,100,29.80,7.0,NE,11.5,18.4,0.01,Rain,Light Rain,40,2011-11-09 10:15:00
4:35 AM,41.0,41.0,100,29.78,7.0,NE,12.7,27.6,0.01,,Light Drizzle,50,2011-11-09 10:35:00
5:45 AM,41.0,39.2,93,29.71,10.0,NE,13.8,-,N/A,Rain,Light Rain,50,2011-11-09 11:45:00
6:45 AM,41.0,39.2,93,29.66,4.0,NE,13.8,-,N/A,Rain,Rain,40,2011-11-09 12:45:00
7:45 AM,41.0,41.0,100,29.62,4.0,NE,20.7,-,N/A,Rain,Light Rain,40,2011-11-09 13:45:00
8:45 AM,42.8,41.0,93,29.58,4.0,NE,15.0,-,N/A,Rain,Light Rain,50,2011-11-09 14:45:00
9:45 AM,41.0,39.2,93,29.56,4.0,North,10.4,-,N/A,Rain,Rain,10,2011-11-09 15:45:00
10:45 AM,41.0,39.2,93,29.53,5.0,NNW,16.1,-,N/A,Rain,Light Rain,340,2011-11-09 16:45:00
12:45 PM,35.6,33.8,93,29.54,10.0,NW,18.4,-,N/A,,Overcast,310,2011-11-09 18:45:00
1:20 PM,32.0,30.2,93,29.58,1.2,WNW,16.1,-,N/A,Rain,Light Rain,290,2011-11-09 19:20:00
1:45 PM,32.0,30.2,93,29.60,1.5,WNW,20.7,-,N/A,Snow,Light Snow,300,2011-11-09 19:45:00
2:45 PM,33.8,32.0,93,29.63,2.5,NW,24.2,-,N/A,Snow,Snow,310,2011-11-09 20:45:00
3:45 PM,33.8,32.0,93,29.65,4.0,WNW,23.0,34.5,N/A,Rain-Snow,Light Rain,290,2011-11-09 21:45:00
4:45 PM,33.8,32.0,93,29.75,7.0,WNW,23.0,34.5,N/A,,Overcast,290,2011-11-09 22:45:00
5:45 PM,33.8,32.0,93,29.83,10.0,WNW,17.3,28.8,N/A,,Overcast,290,2011-11-09 23:45:00
6:45 PM,33.8,32.0,93,29.87,10.0,West,17.3,28.8,N/A,,Overcast,280,2011-11-10 00:45:00
8:15 PM,33.8,30.2,87,29.89,10.0,West,11.5,-,N/A,,Scattered Clouds,260,2011-11-10 02:15:00
8:35 PM,33.8,30.2,87,29.90,10.0,West,9.2,-,N/A,,Clear,260,2011-11-10 02:35:00
8:45 PM,33.8,28.4,81,29.90,10.0,West,11.5,-,N/A,,Clear,260,2011-11-10 02:45:00
8:55 PM,32.0,30.2,93,29.90,10.0,West,9.2,-,N/A,,Clear,260,2011-11-10 02:55:00
9:15 PM,32.0,30.2,93,29.90,10.0,WSW,6.9,-,N/A,,Clear,250,2011-11-10 03:15:00
9:35 PM,32.0,30.2,93,29.90,10.0,WSW,5.8,-,N/A,,Clear,250,2011-11-10 03:35:00
9:55 PM,32.0,30.2,93,29.90,10.0,WSW,8.1,-,N/A,,Clear,240,2011-11-10 03:55:00
10:15 PM,32.0,30.2,93,29.90,10.0,WSW,9.2,-,N/A,,Clear,250,2011-11-10 04:15:00
10:35 PM,32.0,30.2,93,29.90,10.0,WSW,9.2,-,N/A,,Clear,250,2011-11-10 04:35:00
10:55 PM,32.0,30.2,93,29.90,10.0,WSW,10.4,-,N/A,,Clear,250,2011-11-10 04:55:00
11:15 PM,32.0,28.4,87,29.90,10.0,WSW,12.7,-,N/A,,Clear,240,2011-11-10 05:15:00
11:35 PM,32.0,28.4,87,29.90,10.0,WSW,11.5,-,N/A,,Clear,250,2011-11-10 05:35:00
11:55 PM,32.0,28.4,87,29.90,10.0,WSW,11.5,-,N/A,,Clear,250,2011-11-10 05:55:00